Volver al catálogo

SCOUT X-4 R/B

ActivoPO
NORAD 933·ROCKET BODY·🇺🇸 United States

Lanzado Nov 21, 1964 desde Vandenberg Space Force Base

Loading…

Próximos Pases (próximas 24 horas)

TLE

ActualizadoSource: Space-Track

Época: Sep 14, 2026, 10:49 UTC

1 00933U 64076C   26257.45121206  .00001025  00000-0  33588-3 0  9999
2 00933  81.3313  79.6342 1048950 147.6294 219.3841 12.82669770848025

Sigue SCOUT X-4 R/B en tiempo real con AllMySat

Download on the App Store